Tracking 22130 objects as of 21-Jan-2021
HD Live streaming from Space Station
objects crossing your sky now

STARLINK-1840

Track STARLINK-1840 now!
10-day predictions
STARLINK-1840 is classified as:


NORAD ID: 47131
Int'l Code: 2020-088K
Perigee: 385.6 km
Apogee: 388.4 km
Inclination: 53.1 °
Period: 92.1 minutes
Semi major axis: 6758 km
RCS: Unknown
Launch date: November 25, 2020
Source: United States (US)
Launch site: AIR FORCE EASTERN TEST RANGE (AFETR)
aabbcc
Your satellite tracking list
Your tracking list is empty




NASA's NSSDC Master Catalog

Two Line Element Set (TLE):
1 47131U 20088K   21021.58335648  .00063862  00000-0  69935-3 0  9992
2 47131  53.0554  70.8629 0002109  18.3886 235.9852 15.62695762  1776
Source of the keplerian elements: AFSPC